Hourly Data Report for May 26, 2012

All times are specified in Local Standard Time (LST). Add 1 hour to adjust for Daylight Saving Time where and when it is observed.

SASKATOON INTL A
SASKATCHEWAN

52°10'15.000" N
106°42'00.000" W
504.10 m
4057152
YXE

Related Data

No related data is available for this station

Download Data

Hourly Data (May 2012)
Hourly Data Report for May 26, 2012
Temp Definition
°C
Dew Point Temp Definition
°C
Rel Hum Definition
%
Wind Dir Definition
10's deg

Wind Spd Definition
km/h
Visibility Definition
km
Stn Press Definition
kPa
Hmdx Definition


Wind Chill Definition


Weather Definition


TIME
00:00 Legend Double Dagger 5.9 -0.8 62 17 16 10.0 96.26     Clear
01:00 Legend Double Dagger 3.9 -0.9 71 17 11 10.0 96.25     LegendNANA
02:00 Legend Double Dagger 2.8 -1.4 74 18 12 10.0 96.27     LegendNANA
03:00 Legend Double Dagger 2.3 -1.1 78 18 13 10.0 96.26     Mainly Clear
04:00 Legend Double Dagger 2.5 -1.7 74 16 10 10.0 96.23     LegendNANA
05:00 Legend Double Dagger 2.9 -1.3 74   0 10.0 96.27     LegendNANA
06:00 Legend Double Dagger 2.7 -0.4 80 17 5 10.0 96.32     Mostly Cloudy
07:00 Legend Double Dagger 5.6 1.0 72 17 8 10.0 96.34     LegendNANA
08:00 Legend Double Dagger 8.4 2.2 65 17 9 10.0 96.35     LegendNANA
09:00 Legend Double Dagger 10.3 1.2 53 19 15 10.0 96.35     Cloudy
10:00 Legend Double Dagger 12.0 0.8 46 16 11 10.0 96.28     LegendNANA
11:00 Legend Double Dagger 12.4 -0.4 41 13 8 10.0 96.27     LegendNANA
12:00 Legend Double Dagger 14.1 0.4 39 11 9 10.0 96.26     Mostly Cloudy
13:00 Legend Double Dagger 15.1 -0.6 34 13 18 10.0 96.21     LegendNANA
14:00 Legend Double Dagger 15.9 -0.3 33 12 27 10.0 96.16     LegendNANA
15:00 Legend Double Dagger 15.9 -1.1 31 12 21 10.0 96.13     Mostly Cloudy
16:00 Legend Double Dagger 16.1 -1.4 30 14 23 10.0 96.08     LegendNANA
17:00 Legend Double Dagger 15.9 -1.6 30 12 23 10.0 96.05     LegendNANA
18:00 Legend Double Dagger 16.0 -2.4 28 12 24 10.0 96.00     Mostly Cloudy
19:00 Legend Double Dagger 15.1 -1.4 32 11 19 10.0 95.97     LegendNANA
20:00 Legend Double Dagger 13.9 -2.5 32 14 19 10.0 96.00     LegendNANA
21:00 Legend Double Dagger 11.6 -2.6 37 12 15 10.0 96.03     Mostly Cloudy
22:00 Legend Double Dagger 8.6 -0.2 54 10 13 10.0 96.04     LegendNANA
23:00 Legend Double Dagger 8.2 0.2 57 12 14 10.0 96.01     LegendNANA

Notes on Data Quality.

Legend

  • E = Estimated
  • M = Missing
  • NA = Not Available
  • ‡ = Partner data that is not subject to review by the National Climate Archives
Date modified: